map of TTA home
Great Circle Mapper logo
TTA - Airport
Location
City:  Tan Tan, Morocco
Name:Plage Blanche
ICAO / IATA:GMAT / TTA

Details
Type:Airport (Aerodrome, Airfield)
Use:Public/Civil, Military
Latitude:2826'53"N (28.448194)
Longitude:1109'41"W (-11.161346)
Datum:WGS 1984
Elevation:653 ft (199 m)
Variation:3.6W (WMM2010 magnetic declination)
Runways:1
Longest:6562 × 98 ft (2000 × 30 m), paved

Time
Time Zone:UTC+0 (DST+1)
Local Time:

Weather
METAR:GMAT 231200Z 13004KT 100V170 8000 SCT016TCU BKN080 16/15 Q1011 TEMPO 5000 SHRA

Related Locations
Nearby:
Farthest:NLK: 12370 mi / 19908 km
Norfolk Island, NF

Find:

   beyond  
but within

Other Information
Maps:
NOTAMs:
Links:
Sources:

  
flag of Morocco   

Sectional Chart

Flight Planning
at skyvector.com

Satellite Image

Google Maps Satellite View

 

Copyright © 2004-2014 Karl L. Swartz. All rights reserved.
The Great Circle Mapper name and logo are trademarks of the Great Circle Mapper.
All other trademarks mentioned herein belong to their respective owners.
Please see credits for attibutions and further copyright information.

  Follow gcmap on Facebook Follow gcmap on Twitter

hCard Microformat

Geo Microformat